Regional Weather Roundup
Issued by NWS Midland/Odessa, TX

Skip options and go directly to product.
Home | Oldest Version | Previous Version | Current Version | All | Graphics & Text | Save Text | Print | Product List | Glossary On

Skip product version selection by date and time.   
605
ASUS44 KMAF 251101
RWRMAF
MIDLAND AREA WEATHER ROUNDUP
NATIONAL WEATHER SERVICE MIDLAND TX
600 AM CDT WED MAY 25 2016

...IN SOUTHWEST TEXAS AND SOUTHEAST NEW MEXICO...

CITY           SKY/WX    TMP DP  RH WIND       PRES   REMARKS
ALPINE         CLOUDY    71  36  26 W10       30.12R
ANDREWS        FAIR      70  70 100 S7        29.96R FOG
ARTESIA        CLEAR     64  18  16 W12       29.98R
BIG SPRING     CLOUDY    70  67  91 S6        29.94S
CARLSBAD       CLEAR     69  16  13 W10       29.96R
DRYDEN           N/A     75  73  93 E6        29.92S
FORT STOCKTON  CLOUDY    73  49  42 W8        29.95R
GUAD PASS      NOT AVBL
HOBBS          CLEAR     59  59 100 SW5       29.99R FOG
MARFA          CLOUDY    57  37  47 NW6       30.11R
MIDLAND AIRPK  CLOUDY    76  70  81 S8        29.94S
MIDLAND INTL   PTCLDY    74  69  85 S5        29.94S HAZE
ODESSA         MOCLDY    74  69  85 S12       29.95R HAZE
PECOS          MOCLDY    66  25  21 W7        29.93R
PRESIDIO       FAIR      74  41  29 N8        29.96S
SEMINOLE       CLOUDY    66  65  99 SW6       29.97R FOG
SNYDER           N/A     70  69  96 SW5       29.93S FOG
WINK           PTCLDY    65  64  97 MISG      29.92R
$$
...OTHER STATIONS IN TEXAS...

CITY           SKY/WX    TMP DP  RH WIND       PRES   REMARKS
ABILENE        CLOUDY    75  71  87 S16G24    29.89S
AMARILLO       CLEAR     51  34  52 SW14      29.91R
AUSTIN         CLOUDY    77  75  93 S8        29.96R
BROWNSVILLE    CLOUDY    80  78  94 SE12      29.92R
CORPUS CHRISTI MOCLDY    80  77  90 S7        29.93R
DALLAS FTW     CLOUDY    78  71  79 S14G23    29.93S
DEL RIO        CLOUDY    78  76  93 SE12      29.90S
EL PASO        CLEAR     70  21  15 W3        30.04R
HOUSTON INT    MOCLDY    76  75  97 S6        29.99R
LUBBOCK        CLEAR     68  65  90 SW14      29.93R
SAN ANGELO     MOCLDY    77  72  84 SW13      29.91R HAZE
SAN ANTONIO    CLOUDY    77  73  87 S8        29.98S
WACO           CLOUDY    76  72  87 S12       29.95S
WICHITA FALLS  NOT AVBL
$$
...OTHER LOCATIONS IN NEW MEXICO...

CITY           SKY/WX    TMP DP  RH WIND       PRES   REMARKS
ALAMAGORDO     CLEAR     59  23  25 SE9       30.05R
ALBUQUERQUE    CLEAR     54  12  18 CALM      30.09R
CANNON AFB     CLEAR     62  24  23 W13       29.98R
CLOVIS         CLEAR     55  27  33 W9        29.97R
HOLLOMAN AFB   CLEAR     63  20  18 SE7       30.04R
ROSWELL        CLEAR     56  23  27 SW8       29.97R
RUIDOSO          N/A     50  18  27 SE6       30.16R
SANTA FE       CLEAR     39  13  34 N7        30.11R WCI  34
TRUTH OR CONSE CLEAR     59  19  21 VRB3      30.05R
TUCUMCARI      CLEAR     50  29  44 SW8       29.93R
$$

USA.gov is the U.S. government's official web portal to all federal, state and local government web resources and services.